EUTELSAT 117 WEST B (41589 NORAD) Tracking and Keplerian Element Data

This shows tracking and keplerian element data for the satellite.

Feedback or suggestion? Click here.




ElementValue
Catalog41589
NameEUTELSAT 117 WEST B
Epoch Orbit3166
Epoch Day34.67504749
Epoch Year2025
RAAN229.7425
Inclination0.0122
Eccentricity1.24E-05
Argument of Perigee182.1244
Mean Anonmoly208.2233
Mean Motion1.00271057
Decay Rate-7E-08
L11 41589U 16038B 25034.67504749 -.00000007 00000+0 00000+0 0 9997
L22 41589 0.0122 229.7425 0000124 182.1244 208.2233 1.00271057 31663



Live tracking and technical data element details for EUTELSAT 117 WEST B (NORAD 41589). EUTELSAT 117 WEST B can be tracked NOW for your location showing map with azimuth and elevation plus other details from your city location.







IsCatalogInMostPopularTable: catalog: 41589, numindb: 712
Update: records affected: 1



GetName: 41589 EUTELSAT 117 WEST B

Hit Count: updated at: Sat, 17 May 2025 06:05:50 GMT